C/2022 A2 ( PanSTARRS )

Japanese version
Home page
Updated on May 29, 2022

---------------------------------------------------------------------

* Profile

Discovery Date January 10, 2022
Magnitude 20.5 mag
Discoverer Pan-STARRS 2 telescope (Haleakala)

* Pictures

* Orbital Elements

Epoch 2022 Jan. 21.0 TT = JDT 2459600.5
T 2023 Feb. 18.22752 TT                                 Rudenko
q   1.7350973            (2000.0)            P               Q
z  -0.0003742      Peri.   88.36444     +0.01735011     +0.99012105
 +/-0.0000019      Node   171.58046     -0.09144563     -0.13700393
e   1.0006492      Incl.  108.14686     +0.99565891     -0.02983665
From 391 observations 2022 Jan. 9-May 17, mean residual 0".4.

* Finding Charts

* Magnitudes Graph

        m1 = 9.0 + 5 log d + 10.0 log r

---------------------------------------------------------------------

The orbital elements are published on M.P.E.C. 2022-K19.
The charts are made with StellaNavigator Ver.10 (AstroArts).
The magnitudes graphs are made with Comet for Windows.

---------------------------------------------------------------------

Copyright(C) Seiichi Yoshida (comet@aerith.net). All rights reserved.